EW9688 Weather Reports


Display with metric or nautical units.
time (UTC)temp
F
wind
direction
speed
MPH
gust
MPH
rain 1hr
in
rain 24hr
in
rain mn
in
humidity
%
barometer
mb
20260509004216 64 150 2.0 3.0 0.00 0.00 0.00 42 1014.0
20260509003217 65 205 1.0 2.0 0.00 0.00 0.00 42 1014.0
20260509002217 65 165 3.0 3.0 0.00 0.00 0.00 41 1014.0
20260509001219 65 59 2.0 2.0 0.00 0.00 0.00 40 1014.0
20260509000219 65 78 1.0 3.0 0.00 0.00 0.00 41 1014.0
20260508235219 65 108 4.0 5.0 0.00 0.00 0.00 42 1014.0
20260508234218 65 147 3.0 4.0 0.00 0.00 0.00 42 1014.0
20260508233218 65 356 2.0 2.0 0.00 0.00 0.00 41 1014.0
20260508232218 65 139 5.0 6.0 0.00 0.00 0.00 42 1014.0
20260508231238 66 16 4.0 7.0 0.00 0.00 0.00 42 1013.9
20260508230218 65 16 3.0 6.0 0.00 0.00 0.00 41 1014.0
20260508225218 65 207 2.0 2.0 0.00 0.00 0.00 42 1014.0
20260508224219 65 36 3.0 4.0 0.00 0.00 0.00 42 1014.0
20260508223219 65 40 2.0 4.0 0.00 0.00 0.00 42 1014.1
20260508222221 65 154 4.0 5.0 0.00 0.00 0.00 44 1014.3
20260508221219 64 302 1.0 2.0 0.00 0.00 0.00 44 1014.4
20260508220222 64 61 5.0 8.0 0.00 0.00 0.00 45 1014.4
20260508215219 64 31 4.0 5.0 0.00 0.00 0.00 44 1014.4
20260508214219 64 161 3.0 8.0 0.00 0.00 0.00 45 1014.5
20260508213219 64 15 3.0 5.0 0.00 0.00 0.00 45 1014.6
20260508212219 64 11 3.0 5.0 0.00 0.00 0.00 44 1014.6
20260508211300 64 221 2.0 3.0 0.00 0.00 0.00 44 1014.7
20260508210220 64 174 2.0 4.0 0.00 0.00 0.00 44 1014.8
20260508205216 63 23 4.0 5.0 0.00 0.00 0.00 46 1015.0
20260508204225 62 177 4.0 6.0 0.00 0.00 0.00 48 1015.0
20260508203220 62 35 4.0 8.0 0.00 0.00 0.00 47 1015.1
20260508202220 62 118 5.0 7.0 0.00 0.00 0.00 47 1015.1
20260508201216 62 30 3.0 6.0 0.00 0.00 0.00 48 1015.2
20260508200221 62 4 3.0 4.0 0.00 0.00 0.00 47 1015.4
20260508195222 62 37 3.0 6.0 0.00 0.00 0.00 49 1015.4
20260508194223 62 356 4.0 5.0 0.00 0.00 0.00 48 1015.5
20260508193241 61 13 2.0 4.0 0.00 0.00 0.00 49 1015.6
20260508192217 61 33 5.0 7.0 0.00 0.00 0.00 50 1015.6
20260508191217 0 44 3.0 5.0 0.00 0.00 0.00
20260508190223 60 41 4.0 6.0 0.00 0.00 0.00 49 1015.7
20260508185218 60 186 2.0 2.0 0.00 0.00 0.00 51 1015.9
20260508184218 59 45 4.0 6.0 0.00 0.00 0.00 51 1016.0
20260508183218 59 114 5.0 7.0 0.00 0.00 0.00 52 1016.0
20260508182238 59 121 3.0 4.0 0.00 0.00 0.00 51 1016.1
20260508181218 59 223 1.0 3.0 0.00 0.00 0.00 52 1016.2
20260508180219 59 8 4.0 7.0 0.00 0.00 0.00 51 1016.2
20260508175251 58 354 2.0 3.0 0.00 0.00 0.00 52 1016.3
20260508174219 58 344 2.0 2.0 0.00 0.00 0.00 54 1016.3
20260508173224 58 121 3.0 6.0 0.00 0.00 0.00 54 1016.3
20260508172239 57 1 3.0 4.0 0.00 0.00 0.00 54 1016.5
20260508171231 57 2 3.0 4.0 0.00 0.00 0.00 53 1016.4
20260508170231 57 126 3.0 6.0 0.00 0.00 0.00 54 1016.5
20260508165219 56 29 4.0 7.0 0.00 0.00 0.00 58 1016.6
20260508164232 56 16 4.0 7.0 0.00 0.00 0.00 59 1016.5
20260508163232 56 49 3.0 5.0 0.00 0.00 0.00 60 1016.5
20260508162220 56 16 5.0 7.0 0.00 0.00 0.00 61 1016.6
20260508161240 56 38 3.0 5.0 0.00 0.00 0.00 61 1016.5
20260508160221 56 137 3.0 5.0 0.00 0.00 0.00 59 1016.5
20260508155232 55 102 3.0 6.0 0.00 0.00 0.00 60 1016.5
20260508154233 54 176 5.0 7.0 0.00 0.00 0.00 63 1016.5
20260508153233 54 162 6.0 7.0 0.00 0.00 0.00 62 1016.3
20260508152233 54 162 4.0 8.0 0.00 0.00 0.00 62 1016.3
20260508151233 53 186 4.0 6.0 0.00 0.00 0.00 65 1016.5
20260508150221 0 165 8.0 9.0 0.00 0.00 0.00
20260508145221 52 137 6.0 8.0 0.00 0.00 0.00 68 1016.7
20260508144222 0 169 6.0 6.0 0.00 0.00 0.00
20260508143222 51 166 4.0 6.0 0.00 0.00 0.00 69 1017.0
20260508142222 51 187 5.0 7.0 0.00 0.00 0.00 70 1017.1
20260508141243 0 198 5.0 8.0 0.00 0.00 0.00
20260508140227 50 196 3.0 4.0 0.00 0.00 0.00 73 1017.3
20260508135227 49 275 1.0 1.0 0.00 0.00 0.00 74 1017.3
20260508134227 48 189 4.0 4.0 0.00 0.00 0.00 78 1017.2
20260508133247 47 269 1.0 1.0 0.00 0.00 0.00 81 1017.3
20260508132227 46 283 2.0 3.0 0.00 0.00 0.00 85 1017.3
20260508131217 0 267 3.0 4.0 0.00 0.00 0.00
20260508130239 44 296 4.0 5.0 0.00 0.00 0.00 87 1017.3
20260508125300 44 260 3.0 3.0 0.00 0.00 0.00 87 1017.4
20260508124229 43 22 4.0 5.0 0.00 0.00 0.00 87 1017.6
20260508123223 43 26 4.0 6.0 0.00 0.00 0.00 87 1017.6
20260508122228 43 346 2.0 3.0 0.00 0.00 0.00 87 1017.3
20260508121238 43 339 2.0 3.0 0.00 0.00 0.00 88 1016.9
20260508120248 42 85 2.0 3.0 0.00 0.00 0.00 89 1016.6
20260508115229 42 87 2.0 2.0 0.00 0.00 0.00 88 1016.4
20260508114219 42 140 2.0 3.0 0.00 0.00 0.00 88 1016.3
20260508113320 41 183 3.0 3.0 0.00 0.00 0.00 88 1016.2
20260508112229 41 206 2.0 2.0 0.00 0.00 0.00 88 1016.1
20260508111234 41 175 2.0 3.0 0.00 0.00 0.00 87 1016.1
20260508110220 0 200 4.0 9.0 0.00 0.00 0.00
20260508105219 0 200 5.0 11.0 0.00 0.00 0.00
20260508104219 0 52 11.0 15.0 0.00 0.00 0.00
20260508103240 41 100 6.0 15.0 0.00 0.00 0.00 87 1015.6
20260508102252 42 136 2.0 3.0 0.00 0.00 0.00 87 1015.1
20260508101230 42 125 3.0 3.0 0.00 0.00 0.00 87 1015.1
20260508100217 41 195 2.0 3.0 0.00 0.00 0.00 88 1015.2
20260508095217 41 201 2.0 3.0 0.00 0.00 0.00 87 1015.3
20260508094217 41 338 4.0 5.0 0.00 0.00 0.00 88 1015.4
20260508093217 42 179 3.0 4.0 0.00 0.00 0.00 87 1015.4
20260508092238 42 121 2.0 3.0 0.00 0.00 0.00 87 1015.4
20260508091218 43 307 3.0 3.0 0.00 0.00 0.00 86 1015.6
20260508090223 43 353 3.0 3.0 0.00 0.00 0.00 85 1015.4
20260508085229 42 299 3.0 3.0 0.00 0.00 0.00 86 1015.6
20260508084230 43 350 3.0 3.0 0.00 0.00 0.00 85 1015.6
20260508083229 43 354 2.0 3.0 0.00 0.00 0.00 84 1015.7
20260508082230 44 342 2.0 3.0 0.00 0.00 0.00 83 1015.8
20260508081230 44 348 3.0 5.0 0.00 0.00 0.00 82 1016.0
20260508080230 45 355 3.0 3.0 0.00 0.00 0.00 82 1015.9
20260508075231 45 317 3.0 3.0 0.00 0.00 0.00 83 1015.9
20260508074231 44 324 3.0 3.0 0.00 0.00 0.00 84 1016.3
20260508073233 44 21 2.0 3.0 0.00 0.00 0.00 82 1016.2
20260508072231 45 69 3.0 3.0 0.00 0.00 0.00 80 1016.1
20260508071248 45 329 2.0 2.0 0.00 0.00 0.00 79 1015.9
20260508070231 45 310 3.0 4.0 0.00 0.00 0.00 77 1015.9
20260508065235 45 308 4.0 5.0 0.00 0.00 0.00 79 1015.8
20260508064231 45 321 1.0 1.0 0.00 0.00 0.00 79 1015.9
20260508063232 46 302 4.0 4.0 0.00 0.00 0.00 78 1015.9
20260508062232 47 312 5.0 5.0 0.00 0.00 0.00 76 1015.7
20260508061231 47 308 4.0 4.0 0.00 0.00 0.00 77 1015.9
20260508060221 49 250 3.0 3.0 0.00 0.00 0.00 75 1015.7
20260508055232 50 224 2.0 3.0 0.00 0.00 0.00 73 1015.8
20260508054232 50 10 2.0 2.0 0.00 0.00 0.00 71 1016.2
20260508053230 50 359 3.0 4.0 0.00 0.00 0.00 69 1016.4
20260508052233 50 285 3.0 4.0 0.00 0.00 0.00 70 1015.8
20260508051234 50 243 2.0 2.0 0.00 0.00 0.00 70 1015.6
20260508050233 50 280 2.0 3.0 0.00 0.00 0.00 71 1015.5
20260508045234 50 293 1.0 2.0 0.00 0.00 0.00 71 1015.3
20260508044239 51 270 1.0 2.0 0.00 0.00 0.00 69 1015.4
20260508043234 51 184 3.0 3.0 0.00 0.00 0.00 69 1015.3
20260508042234 52 344 1.0 1.0 0.00 0.00 0.00 67 1015.4
20260508041234 53 325 2.0 3.0 0.00 0.00 0.00 60 1015.4
20260508040231 52 324 2.0 4.0 0.00 0.00 0.00 61 1015.4
20260508035235 53 295 3.0 3.0 0.00 0.00 0.00 59 1015.2
20260508034235 53 287 3.0 3.0 0.00 0.00 0.00 59 1015.1
20260508033234 53 258 1.0 1.0 0.00 0.00 0.00 57 1014.9
20260508032235 53 266 2.0 2.0 0.00 0.00 0.00 56 1015.0
20260508031235 54 281 2.0 2.0 0.00 0.00 0.00 55 1015.1
20260508030223 54 232 2.0 3.0 0.00 0.00 0.00 55 1014.9
20260508025221 54 214 3.0 4.0 0.00 0.00 0.00 55 1014.9
20260508024221 55 234 4.0 6.0 0.00 0.00 0.00 54 1014.6
20260508023241 56 196 2.0 3.0 0.00 0.00 0.00 52 1014.6
20260508022224 57 353 2.0 3.0 0.00 0.00 0.00 47 1014.7
20260508021221 57 276 2.0 4.0 0.00 0.00 0.00 44 1014.6
20260508020224 57 196 1.0 2.0 0.00 0.00 0.00 49 1014.9
20260508015225 58 155 1.0 1.0 0.00 0.00 0.00 46 1014.4
20260508014224 59 357 1.0 1.0 0.00 0.00 0.00 42 1014.2
20260508013225 59 340 1.0 2.0 0.00 0.00 0.00 39 1013.9
20260508012225 60 12 1.0 1.0 0.00 0.00 0.00 42 1013.8
20260508011225 59 270 1.0 1.0 0.00 0.00 0.00 46 1013.7
20260508010225 61 277 1.0 2.0 0.00 0.00 0.00 39 1013.6
20260508005225 61 187 1.0 1.0 0.00 0.00 0.00 34 1013.3